Location: Blankensee
(53.5126°N, 14.3055°E)
Time: 17:14:34
(UTC+00:00)

Cosmos 1048 Rocket - Pass Details

Date: 08 August 2020
Orbit: 743 x 791 km, 74.0° (Epoch: 19 September)

Event Time Altitude Azimuth Distance (km) Brightness Sun altitude
Rises 02:44:19 0° 332° (NNW) 3,198 7.4 -6.6°
Reaches altitude 10° 02:46:41 10° 331° (NNW) 2,272 6.6 -6.3°
Maximum altitude 02:51:49 76° 247° (WSW) 777 3.9 -5.7°
Drops below altitude 10° 02:56:57 10° 163° (SSE) 2,274 6.3 -5.1°
Sets 02:59:19 0° 161° (SSE) 3,201 7.0 -4.8°
